Content
SEND FEEDBACK

Daily
Averages
Monthly
Summary
Netherlands

HAARLEM, NETHERLANDS


Home > Europe > Netherlands
Elevation: 62 feet     Latitude: 52 28N     Longitude: 004 35E

WEATHER
 
SELECT A DAY
Number of Records: 302,132;   Date Range: 7/1/96 - 7/28/14
 
SHARE

PRINT THIS DATA

[ ← Previous Day ]
WEATHER ALMANAC - MARCH 6, 2013
[ Next Day → ]
[ °C ]   °F
Weather ElementAverageHighLow
Temperature51.4 °F60.8 °F (1:25 pm)42 °F (4:00 am)
Dewpoint35.5 °F39.2 °F (12:55 pm)32 °F (3:55 am)
Humidity54.2 %71 % (7:55 am)30 % (1:00 pm)
Barometer29.61 in29.68 in (12:55 am)29.56 in (4:25 pm)
Wind Speed6.6 mph13.8 mph (9:55 pm)
Weather ElementAverage
Visibility9.8 mi
Wind DirectionE (93.1 °)

Weather ElementTotal
Precipitation---
Heating Degree Days13.6 (Base 65)
Growing Degree Days1.4 (Base 50)
Averaged from 55 records on March 6, 2013
WEATHER CONDITIONS BREAKOUT
WIND DIRECTION BREAKOUT
WEATHER BY HOUR - MARCH 6, 2013
[ °C ]   °F
Local TimeTemperatureDewpointHumidityBarometerVisibilityWind DirectionWind SpeedGust SpeedPrecipitationEventsConditions
12:55 AM44.6 °F33.8 °F66 %29.68 inSE (140°)5.8 mphClear
1:00 AM44.0 °F34.0 °F59 %29.68 in9.0 miSE (140°)6.7 mphPartly Cloudy
1:25 AM46.4 °F33.8 °F62 %29.65 inSE (140°)8.1 mphClear
1:55 AM44.6 °F33.8 °F66 %29.65 inSSE (150°)5.8 mphClear
2:25 AM44.6 °F33.8 °F66 %29.65 inSSE (150°)4.6 mphClear
2:55 AM42.8 °F33.8 °F70 %29.65 inSSE (150°)6.9 mphClear
3:25 AM42.8 °F33.8 °F70 %29.65 inSE (140°)5.8 mphClear
3:55 AM42.8 °F32.0 °F66 %29.65 inESE (120°)4.6 mphClear
4:00 AM42.0 °F33.0 °F59 %29.65 in9.0 miESE (120°)4.5 mphScattered Clouds
4:25 AM44.6 °F33.8 °F66 %29.62 inSE (130°)4.6 mphClear
4:55 AM42.8 °F33.8 °F70 %29.65 inVariable2.3 mphClear
5:25 AM42.8 °F33.8 °F70 %29.65 inSE (130°)5.8 mphClear
5:55 AM44.6 °F33.8 °F66 %29.62 inESE (120°)4.6 mphClear
6:25 AM44.6 °F33.8 °F66 %29.62 inSE (130°)5.8 mphClear
6:55 AM44.6 °F33.8 °F66 %29.62 inSE (140°)3.5 mphClear
7:00 AM45.0 °F34.0 °F54 %29.64 in9.0 miSE (140°)4.5 mphPartly Cloudy
7:25 AM44.6 °F33.8 °F66 %29.62 inESE (120°)3.5 mphClear
7:55 AM44.6 °F35.6 °F71 %29.62 inESE (110°)4.6 mphClear
8:25 AM46.4 °F35.6 °F66 %29.62 inESE (110°)5.8 mphClear
8:55 AM46.4 °F35.6 °F66 %29.62 inESE (120°)4.6 mphClear
9:25 AM48.2 °F35.6 °F62 %29.62 inSE (130°)4.6 mphClear
9:55 AM50.0 °F35.6 °F58 %29.62 inSE (130°)3.5 mphClear
10:00 AM49.0 °F35.0 °F47 %29.65 in8.0 miSE (140°)2.2 mphOvercast
10:25 AM50.0 °F35.6 °F58 %29.62 inESE (110°)4.6 mphClear
10:55 AM51.8 °F35.6 °F54 %29.62 inESE (120°)2.3 mphClear
11:25 AM53.6 °F37.4 °F54 %29.62 inVariable2.3 mphClear
11:55 AM55.4 °F35.6 °F47 %29.62 inVariable2.3 mphClear
12:25 PM59.0 °F37.4 °F45 %29.62 inEast (80°)4.6 mphClear
12:55 PM59.0 °F39.2 °F48 %29.62 inEast (90°)4.6 mphClear
1:00 PM59.0 °F36.0 °F30 %29.63 in9.0 miEast (90°)4.5 mphPartly Cloudy
1:25 PM60.8 °F37.4 °F42 %29.59 inEast (100°)5.8 mphClear
1:55 PM60.8 °F35.6 °F39 %29.59 inENE (70°)5.8 mphClear
2:25 PM59.0 °F35.6 °F42 %29.59 inENE (70°)6.9 mphClear
2:55 PM57.2 °F33.8 °F41 %29.59 inENE (70°)5.8 mphClear
3:25 PM59.0 °F33.8 °F39 %29.59 inENE (60°)4.6 mphClear
3:55 PM59.0 °F35.6 °F42 %29.59 inENE (60°)4.6 mphClear
4:00 PM60.0 °F37.0 °F30 %29.60 in10.0 miENE (60°)4.5 mphOvercast
4:25 PM59.0 °F37.4 °F45 %29.56 inNE (50°)8.1 mphClear
4:55 PM57.2 °F39.2 °F51 %29.56 inNE (50°)6.9 mphClear
5:25 PM57.2 °F39.2 °F51 %29.56 inNE (50°)9.2 mphClear
5:55 PM55.4 °F39.2 °F54 %29.56 inNE (50°)6.9 mphClear
6:25 PM53.6 °F39.2 °F58 %29.56 inENE (60°)6.9 mphClear
6:55 PM57.2 °F35.6 °F44 %29.56 inEast (80°)9.2 mphClear
7:00 PM57.0 °F35.0 °F32 %29.60 in13.0 miEast (80°)8.9 mphPartly Cloudy
7:25 PM57.2 °F35.6 °F44 %29.59 inEast (80°)10.4 mphClear
7:55 PM55.4 °F35.6 °F47 %29.59 inEast (80°)10.4 mphClear
8:25 PM55.4 °F35.6 °F47 %29.56 inENE (70°)10.4 mphClear
8:55 PM53.6 °F37.4 °F54 %29.59 inEast (80°)10.4 mphClear
9:25 PM55.4 °F37.4 °F51 %29.56 inEast (80°)12.7 mphClear
9:55 PM53.6 °F35.6 °F51 %29.56 inENE (70°)13.8 mphClear
10:00 PM54.0 °F36.0 °F39 %29.59 in11.0 miEast (80°)13.4 mphOvercast
10:25 PM53.6 °F37.4 °F54 %29.56 inENE (70°)12.7 mphClear
10:55 PM51.8 °F35.6 °F54 %29.56 inENE (70°)12.7 mphClear
11:25 PM51.8 °F35.6 °F54 %29.56 inENE (70°)11.5 mphClear
11:55 PM50.0 °F37.4 °F62 %29.56 inENE (70°)11.5 mphClear
Hourly data recorded from EHAM, located miles away from Haarlem, Netherlands







STORIES FROM OUR PARTNERS